[TLELIST] Archives

 

Current TLEs

July 24th 2007 PDT

HST 1 20580U 90037B 07204.66305984 .00000309 00000-0 11133-4 0 9229 2 20580 028.4693 312.2547 0003846 128.5007 231.5926 15.00262870745440 ISS (ZARYA) 1 25544U 98067A 07205.34896912 -.00044326 00000-0 -27716-3 0 6383 2 25544 051.6291 271.7479 0010046 158.4066 294.6488 15.75863739496648 CXO 1 25867U 99040B 07202.00000000 .00000212 00000-0 00000+0 0 929 2 25867 062.0469 088.5538 6277647 283.5062 353.8291 00.37804734 2389 ____________________________________________________________________ These 2-Line ...Continue Reading

Current TLEs

July 23rd 2007 PDT

HST 1 20580U 90037B 07203.53214910 .00000296 00000-0 10069-4 0 9213 2 20580 028.4692 319.6294 0003719 117.5848 242.5117 15.00262378745277 ISS (ZARYA) 1 25544U 98067A 07204.47832176 .00011861 00000-0 69820-4 0 6343 2 25544 051.6315 276.2414 0011421 093.7731 092.0577 15.78673057496501 CXO 1 25867U 99040B 07202.00000000 .00000212 00000-0 00000+0 0 929 2 25867 062.0469 088.5538 6277647 283.5062 353.8291 00.37804734 2389 ____________________________________________________________________ These 2-Line ...Continue Reading

Current TLEs

July 22nd 2007 PDT

HST 1 20580U 90037B 07201.73599706 .00000315 00000-0 11549-4 0 9207 2 20580 028.4691 331.3427 0003549 100.3012 259.8082 15.00262010745005 ISS (ZARYA) 1 25544U 98067A 07203.46511574 .00009647 00000-0 57603-4 0 6285 2 25544 051.6346 281.4832 0011536 090.4423 093.2531 15.78641261496343 CXO 1 25867U 99040B 07202.00000000 .00000212 00000-0 00000+0 0 929 2 25867 062.0469 088.5538 6277647 283.5062 353.8291 00.37804734 2389 ____________________________________________________________________ These 2-Line ...Continue Reading

Current TLEs

July 21st 2007 PDT

HST 1 20580U 90037B 07201.73599706 .00000315 00000-0 11549-4 0 9207 2 20580 028.4691 331.3427 0003549 100.3012 259.8082 15.00262010745005 ISS (ZARYA) 1 25544U 98067A 07202.43804757 .00066826 00000-0 37383-3 0 6249 2 25544 051.6337 286.7911 0011603 085.4570 017.3812 15.78622579496183 CXO 1 25867U 99040B 07202.00000000 .00000212 00000-0 00000+0 0 929 2 25867 062.0469 088.5538 6277647 283.5062 353.8291 00.37804734 2389 ____________________________________________________________________ These 2-Line ...Continue Reading

Current TLEs

July 20th 2007 PDT

HST 1 20580U 90037B 07200.53856060 .00000301 00000-0 10506-4 0 9198 2 20580 028.4682 339.1640 0003412 086.0605 274.0365 15.00261546744820 ISS (ZARYA) 1 25544U 98067A 07201.50240741 .00014877 00000-0 84550-4 0 6173 2 25544 051.6352 291.6319 0009060 084.7414 096.0395 15.79228387496034 CXO 1 25867U 99040B 07202.00000000 .00000212 00000-0 00000+0 0 929 2 25867 062.0469 088.5538 6277647 283.5062 353.8291 00.37804734 2389 ____________________________________________________________________ These 2-Line ...Continue Reading

Current TLEs

July 19th 2007 PDT

HST 1 20580U 90037B 07198.74240476 .00000360 00000-0 15114-4 0 9189 2 20580 028.4680 350.8744 0003478 066.0927 294.0027 15.00261299744552 ISS (ZARYA) 1 25544U 98067A 07200.28502481 .00016615 00000-0 94107-4 0 6136 2 25544 051.6358 297.9340 0008913 080.2435 014.8514 15.79196610495845 CXO 1 25867U 99040B 07199.37500000 .00000190 00000-0 00000+0 0 913 2 25867 062.0356 088.6072 6274464 283.5603 356.4057 00.37804548 2374 ____________________________________________________________________ These 2-Line ...Continue Reading

Current TLEs

July 18th 2007 PDT

HST 1 20580U 90037B 07198.74240476 .00000360 00000-0 15114-4 0 9189 2 20580 028.4680 350.8744 0003478 066.0927 294.0027 15.00261299744552 ISS (ZARYA) 1 25544U 98067A 07199.46234037 .00018652 00000-0 10525-3 0 6068 2 25544 051.6346 302.1897 0008968 079.1819 015.7573 15.79176616495716 CXO 1 25867U 99040B 07199.37500000 .00000190 00000-0 00000+0 0 913 2 25867 062.0356 088.6072 6274464 283.5603 356.4057 00.37804548 2374 ____________________________________________________________________ These 2-Line ...Continue Reading

Current TLEs

July 17th 2007 PDT

HST 1 20580U 90037B 07197.54496713 .00000360 00000-0 15100-4 0 9177 2 20580 028.4681 358.6839 0003450 052.4472 307.6430 15.00260767744376 ISS (ZARYA) 1 25544U 98067A 07198.44819756 .00020644 00000-0 11623-3 0 5997 2 25544 051.6343 307.4377 0008889 075.1900 010.4931 15.79144921495559 CXO 1 25867U 99040B 07194.08333333 .00000133 00000-0 00000+0 0 905 2 25867 062.0218 088.7220 6265190 283.7005 355.8878 00.37797573 2352 ____________________________________________________________________ These 2-Line ...Continue Reading

Current TLEs

July 16th 2007 PDT

HST 1 20580U 90037B 07195.88185829 .00000342 00000-0 13677-4 0 9161 2 20580 028.4680 009.5299 0003451 033.2757 326.8052 15.00259930744127 ISS (ZARYA) 1 25544U 98067A 07197.50078632 .00021431 00000-0 12071-3 0 5929 2 25544 051.6342 312.3401 0008723 071.3292 024.8276 15.79108687495404 CXO 1 25867U 99040B 07194.08333333 .00000133 00000-0 00000+0 0 905 2 25867 062.0218 088.7220 6265190 283.7005 355.8878 00.37797573 2352 ____________________________________________________________________ These 2-Line ...Continue Reading

Current TLEs

July 15th 2007 PDT

HST 1 20580U 90037B 07195.88185829 .00000342 00000-0 13677-4 0 9161 2 20580 028.4680 009.5299 0003451 033.2757 326.8052 15.00259930744127 ISS (ZARYA) 1 25544U 98067A 07196.48669880 .00020448 00000-0 11561-3 0 5869 2 25544 051.6339 317.5863 0008704 068.5744 018.8720 15.79059863495248 CXO 1 25867U 99040B 07194.08333333 .00000133 00000-0 00000+0 0 905 2 25867 062.0218 088.7220 6265190 283.7005 355.8878 00.37797573 2352 ____________________________________________________________________ These 2-Line ...Continue Reading
  • This mailing list is a public mailing list - anyone may join or leave, at any time.
  • This mailing list is announce-only.

International Space Station (ISS) / Hubble Space Telescope (HST) / Chandra X-Ray Observatory Orbital Data via EMAIL

Privacy Policy:

Private list